User: anonymous   Login
Location: Unspecified
(0.0000°N, 0.0000°E)
Time: 09:21:24
(UTC+00:00)
Language:

AIST 1 - Orbit

View from above orbital plane
View from above orbital plane
View from above satellite
View from above satellite

Ground track
Ground track

The orbit data is extracted from the following two-line orbital elements,

1 39492U 13078C   17086.93145728 +.00000297 +00000-0 +30013-4 0  9996
2 39492 082.4168 260.0691 0018810 306.3592 053.5888 14.87553712173863
Epoch (UTC): 27 March 2017 22:21:17
Eccentricity: 0.0018810
inclination: 82.4168°
perigee height: 592 km
apogee height: 619 km
right ascension of ascending node: 260.0691°
argument of perigee: 306.3592°
revolutions per day: 14.87553712
mean anomaly at epoch: 53.5888°
orbit number at epoch: 17386

The dashed part of the orbit path shows where the satellite is in the earth's shadow,  

DLR